Back to catalog

STARLINK-34433

AliveCommunicationsVLEO
NORAD 64448·PAYLOAD·🇺🇸 United States

Launched Jun 18, 2025 from Cape Canaveral Space Force Station

Loading…

Next Passes (next 24 hours)

TLE

FreshSource: CelesTrak SupGP

Epoch: Sep 14, 2026, 22:29 UTC

1 64448C 25130L   26257.93729167  .00053086  00000+0  15688-2 0  2571
2 64448  53.1578 287.8214 0001196  94.4451 186.8301 15.34357403    16

Track STARLINK-34433 in real time with AllMySat

Download on the App Store